Other Surface Observations
Issued by NWS Charleston, SC

Home | Current Version | Previous Version | Text Only | Print | Product List | Glossary On
Versions: 1 2 3 4 5 6 7 8 9 10 11 12 13 14 15 16 17 18 19 20 21 22 23 24 25 26 27 28 29 30 31 32 33 34 35 36 37 38 39 40 41 42 43 44 45 46 47 48 49 50
000
SXUS52 KCHS 280928
OSOCHS

MARINE OBSERVATIONS
NATIONAL WEATHER SERVICE CHARLESTON SC
500 AM EDT SAT MAY 28 2016

...DOWNTOWN CHARLESTON AND HARBOR...

CITY           SKY/WX    TMP DP  RH WIND       PRES   REMARKS
WATERFRONT PRK   N/A     73  70  90 N6        30.03F

...LAKE MOULTRIE...

CITY           SKY/WX    TMP DP  RH WIND       PRES   REMARKS
PINOPOLIS        N/A     72  68  88 E8        30.01S

...LAKE AND SUPPLEMENTAL COASTAL OBSERVATIONS...

STATION/POSITION TIME  TEMP    WIND        PRES    WAVE   SWELL
                       AIR SEA DIR/SP/G            HT/PER HT/PER/DIR
                 (UTC) (F)     (DEG/KT/KT) (MB)    (FT/S) (FT/S/D)
FORT PULASKI     0900   75 77   50/ 10/ 12 1017.7S
SAPELO ISLAND    0900   71      40/  6     1017.0S
WINYAH BAY       0845   75      50/  8     1018.0S
LAKE MURRAY      0900   65        CALM     1019.3S
ACE BASIN NERRS  0800   69     360/  1     1018.0S


...C-MAN AND BUOY OBSERVATIONS...

STATION/POSITION TIME  TEMP    WIND        PRES    WAVE   SWELL
                       AIR SEA DIR/SP/G            HT/PER HT/PER/DIR
                 (UTC) (F)     (DEG/KT/KT) (MB)    (FT/S) (FT/S/D)
BUOY 41004       0850   76 76   30/ 14/ 16 1016.7F   4/ 7
BUOY 41008       0850   76 76   60/ 14/ 16 1016.1F   3/ 7   2/120/ 7
FOLLY BEACH CMAN 0900   75      40/ 13/ 14 1017.9S
CAPERS NS BUOY   0908   75 76   50/ 14/ 17 1017.4F
FRIPP NS BUOY    0908   74 76   80/  6/ 10 1017.1R
5E ST. MARYS GA  0901      78                N/A     3/ 8


STATION/POSITION TIME  TEMP    WIND        PRES    WAVE   SWELL
                       AIR SEA DIR/SP/G            HT/PER HT/PER/DIR
                 (UTC) (F)     (DEG/KT/KT) (MB)    (FT/S) (FT/S/D)
FRYING PAN BUOY  0900   77 76   50/ 12/ 16 1018.3R
BUOY 41025       0850   76 78  120/ 12/ 14 1020.2R   4/ 8   3/120/ 8
CAPE LOOKOUT NC  0900   74     110/  7/  8 1019.7R
BUOY 41002       0850   76 77   90/ 17/ 19 1017.2R   5/ 8   3/120/ 8
BUOY 41010       0820   77 78  340/ 12/ 14 1013.2F
ST AUGUSTINE FL  0900   76 79   50/ 11/ 12 1016.3S

$$




USA.gov is the U.S. government's official web portal to all federal, state and local government web resources and services.